Location: Shenandoah County Park
(38.9356°N, 78.4524°W)
Time: 13:57:06
(UTC-04:00)

Envisat - Pass Details

Date: 29 May 2024
Orbit: 762 x 764 km, 98.3° (Epoch: 14 June)

Event Time Altitude Azimuth Distance (km) Brightness Sun altitude
Rises 03:48:12 0° 23° (NNE) 3,232 7.7 -19.1°
Reaches altitude 10° 03:50:44 10° 33° (NNE) 2,302 6.7 -18.8°
Maximum altitude 03:55:17 33° 97° (E) 1,268 4.4 -18.2°
Drops below altitude 10° 03:59:48 10° 161° (SSE) 2,287 5.2 -17.7°
Enters shadow 04:00:04 - 162° (SSE) 2,381 5.3 -17.6°
